"startDT [UTC]","vpos","CH4 [ppm]","stdev(CH4) [ppm]","CO2 [ppm]","stdev(CO2) [ppm]","H2O_reported [%]","stdev(H2O_reported)","CavityPressure [torr]","CavityTemp [C]","OutletValve","CH4_dry [ppm]","CO2_dry [ppm]","DasTemp [C]","EtalonTemp [C]","WarmBoxTemp [C]","MPVPosition","T_ECpre [C]","T_EC1 [C]","T_EC2 [C]","p_inlet [hPa]","p_in [hPa]","p_out [hPa]","T_inlet [C]","RH_inlet [%]","dwpt_inlet [C]","T_vent [C]","RH_vent [%]","dwpt_vent [C]","flow_vent [l min-1]","flow_inlet [l min-1]","dwpt_sample [C]","T_room [C]"
2016-06-25 00:00:00,0.0,1.90251,0.00043,399.203,0.073,0.8951,0.0052,140.001,45.000,31816.68382,1.91979,403.626,36.501,45.069,45.000,0.00,0.09,-272.77,-272.84,-11,526,-943,21.8,26.6,1.7,22.0,26.6,1.9,5.73,1.80,-1.0,27.6
2016-06-25 00:01:00,0.0,1.90230,0.00041,399.170,0.069,0.9026,0.0075,140.000,45.000,31818.78620,1.91967,403.628,36.486,45.070,45.000,0.00,0.09,-272.78,-272.84,-12,526,-943,21.8,26.8,1.8,22.0,26.9,2.1,5.73,1.71,-1.0,27.5
2016-06-25 00:02:00,0.0,1.90238,0.00044,399.169,0.079,0.9035,0.0078,140.000,45.000,31819.20796,1.91979,403.634,36.461,45.070,45.000,0.00,0.09,-272.79,-272.84,-10,526,-943,21.8,26.8,1.9,22.0,26.9,2.0,5.73,1.99,-1.0,27.5
2016-06-25 00:03:00,0.0,1.90206,0.00032,399.147,0.043,0.9006,0.0040,139.999,45.000,31819.95067,1.91944,403.597,36.439,45.069,45.000,0.00,0.09,-272.77,-272.84,-11,526,-942,21.8,26.8,1.9,22.0,26.9,2.1,5.73,1.74,-1.0,27.5
2016-06-25 00:04:00,0.0,1.90145,0.00051,398.868,0.096,0.9318,0.0115,139.998,45.000,31818.89545,1.91939,403.473,36.438,45.069,45.000,0.00,0.09,-272.78,-272.84,-12,526,-943,21.8,27.7,2.3,22.0,27.5,2.4,5.73,1.76,-1.0,27.5
2016-06-25 00:05:00,0.0,1.90215,0.00039,399.115,0.095,0.9117,0.0097,140.000,45.000,31818.03075,1.91971,403.621,36.438,45.069,45.000,0.00,0.09,-272.78,-272.85,-11,526,-943,21.8,27.1,2.0,21.9,27.5,2.3,5.73,1.99,-1.0,27.5
2016-06-25 00:06:00,0.0,1.90198,0.00037,399.132,0.038,0.9070,0.0068,140.001,45.000,31821.20713,1.91947,403.614,36.457,45.070,45.001,0.00,0.09,-272.78,-272.84,-10,526,-943,21.8,26.9,1.9,21.9,27.1,2.1,5.73,1.67,-1.0,27.5
2016-06-25 00:07:00,0.0,1.90149,0.00029,399.078,0.085,0.9094,0.0095,139.998,45.000,31821.15488,1.91901,403.570,36.500,45.070,45.001,0.00,0.09,-272.79,-272.84,-12,526,-943,21.8,27.1,2.0,21.9,27.1,2.1,5.73,1.89,-1.0,27.5
2016-06-25 00:08:00,0.0,1.90189,0.00050,399.120,0.054,0.9113,0.0101,140.000,45.000,31819.17950,1.91943,403.624,36.507,45.071,45.001,0.00,0.09,-272.79,-272.85,-11,526,-943,21.8,27.1,2.0,22.0,27.3,2.3,5.73,1.89,-0.9,27.6
2016-06-25 00:09:00,0.0,1.90197,0.00047,399.078,0.037,0.9145,0.0041,140.000,45.001,31821.78621,1.91961,403.597,36.555,45.071,45.001,0.00,0.09,-272.78,-272.83,-10,526,-943,21.8,27.2,2.0,22.0,27.3,2.2,5.73,1.66,-1.0,27.5
2016-06-25 00:10:00,0.0,1.90239,0.00047,399.155,0.029,0.9028,0.0036,140.000,45.001,31817.69753,1.91977,403.617,36.561,45.070,45.000,0.00,0.09,-272.79,-272.84,-12,526,-943,21.8,26.8,1.9,22.0,27.1,2.1,5.73,1.99,-0.9,27.5
2016-06-25 00:11:00,0.0,1.90206,0.00050,399.130,0.081,0.9039,0.0107,140.001,45.000,31817.89610,1.91950,403.596,36.564,45.069,45.000,0.00,0.09,-272.78,-272.85,-11,526,-943,21.8,26.8,1.9,22.0,27.0,2.1,5.73,1.78,-0.9,27.5
2016-06-25 00:12:00,0.0,1.90227,0.00033,399.201,0.064,0.9009,0.0072,139.999,45.000,31815.92273,1.91960,403.652,36.561,45.069,44.999,0.00,0.09,-272.78,-272.84,-10,526,-942,21.8,26.6,1.8,22.0,26.9,2.1,5.73,1.72,-0.9,27.5
2016-06-25 00:13:00,0.0,1.90144,0.00055,398.949,0.135,0.9273,0.0175,140.000,45.000,31819.48145,1.91933,403.531,36.538,45.069,44.999,0.00,0.09,-272.78,-272.83,-11,526,-943,21.8,27.6,2.3,21.9,27.3,2.3,5.73,2.01,-0.9,27.5
2016-06-25 00:14:00,0.0,1.90186,0.00054,399.067,0.141,0.9214,0.0140,139.998,45.000,31817.13713,1.91959,403.621,36.539,45.069,45.000,0.00,0.09,-272.78,-272.84,-11,526,-943,21.8,27.4,2.2,22.0,27.7,2.5,5.73,1.68,-0.9,27.5
2016-06-25 00:15:00,0.0,1.90222,0.00052,399.203,0.050,0.9024,0.0031,139.999,45.000,31817.54128,1.91964,403.663,36.563,45.070,45.000,0.00,0.09,-272.79,-272.84,-10,526,-943,21.8,26.8,1.9,22.0,27.1,2.2,5.73,1.88,-0.9,27.6
2016-06-25 00:16:00,0.0,1.90207,0.00040,399.108,0.032,0.9136,0.0036,140.001,45.000,31819.13687,1.91967,403.622,36.563,45.070,45.001,0.00,0.09,-272.78,-272.84,-11,525,-943,21.8,27.1,2.0,21.9,27.2,2.2,5.73,1.90,-0.9,27.6
2016-06-25 00:17:00,0.0,1.90184,0.00048,399.048,0.040,0.9206,0.0063,140.001,45.000,31819.76460,1.91960,403.599,36.564,45.070,45.001,0.00,0.09,-272.77,-272.83,-12,526,-943,21.8,27.4,2.1,22.0,27.5,2.3,5.73,1.66,-0.9,27.5
2016-06-25 00:18:00,0.0,1.90134,0.00038,398.950,0.127,0.9307,0.0182,139.997,45.000,31819.73346,1.91928,403.551,36.558,45.070,45.001,0.00,0.09,-272.79,-272.85,-10,526,-943,21.8,27.6,2.3,22.0,27.8,2.5,5.73,1.98,-0.9,27.5
2016-06-25 00:19:00,0.0,1.90163,0.00036,398.931,0.113,0.9328,0.0147,140.000,45.000,31818.26332,1.91957,403.541,36.512,45.070,45.000,0.00,0.09,-272.78,-272.84,-10,526,-943,21.8,27.7,2.3,22.0,27.8,2.5,5.73,1.82,-0.9,27.5
2016-06-25 00:20:00,0.0,1.90209,0.00033,399.126,0.092,0.9109,0.0114,139.998,45.000,31819.14637,1.91964,403.629,36.500,45.069,44.999,0.00,0.09,-272.78,-272.83,-12,526,-942,21.8,27.0,2.0,22.0,27.4,2.3,5.73,1.69,-0.9,27.5
2016-06-25 00:21:00,0.0,1.90202,0.00042,399.050,0.070,0.9213,0.0095,140.000,44.999,31818.13440,1.91978,403.600,36.498,45.069,44.999,0.00,0.09,-272.79,-272.84,-11,526,-942,21.8,27.3,2.1,22.0,27.3,2.3,5.73,2.00,-0.9,27.5
2016-06-25 00:22:00,0.0,1.90226,0.00038,399.092,0.079,0.9151,0.0105,139.999,44.999,31819.35356,1.91988,403.615,36.464,45.069,44.999,0.00,0.09,-272.78,-272.84,-10,526,-942,21.8,27.1,2.1,22.0,27.4,2.3,5.73,1.75,-0.9,27.5
2016-06-25 00:23:00,0.0,1.90228,0.00030,399.068,0.056,0.9157,0.0045,140.002,44.999,31819.57789,1.91995,403.598,36.465,45.069,44.999,0.00,0.09,-272.78,-272.84,-12,526,-942,21.8,27.2,2.1,22.0,27.4,2.3,5.73,1.74,-0.9,27.5
2016-06-25 00:24:00,0.0,1.90201,0.00053,398.991,0.108,0.9216,0.0150,139.999,44.999,31818.48872,1.91979,403.546,36.451,45.069,44.999,0.00,0.09,-272.78,-272.83,-12,526,-942,21.9,27.3,2.2,22.0,27.5,2.4,5.73,1.99,-0.9,27.5
2016-06-25 00:25:00,0.0,1.90218,0.00038,399.035,0.095,0.9200,0.0121,139.998,44.999,31818.83107,1.91990,403.579,36.442,45.069,44.999,0.00,0.09,-272.79,-272.85,-10,526,-942,21.9,27.2,2.1,22.0,27.5,2.4,5.73,1.71,-0.9,27.5
2016-06-25 00:26:00,0.0,1.90235,0.00041,399.113,0.054,0.9100,0.0046,139.998,45.000,31818.36487,1.91987,403.610,36.437,45.069,44.999,0.00,0.09,-272.78,-272.84,-11,526,-942,21.8,26.9,1.9,22.0,27.3,2.2,5.73,1.80,-0.9,27.5
2016-06-25 00:27:00,0.0,1.90214,0.00059,399.273,0.289,0.9186,0.0131,140.001,45.000,31818.58354,1.91984,403.815,36.439,45.069,45.000,0.00,0.09,-272.77,-272.84,-12,526,-942,21.8,27.2,2.1,22.0,27.3,2.3,5.73,1.97,-0.9,27.5
2016-06-25 00:28:00,0.0,1.90222,0.00039,399.089,0.048,0.9135,0.0064,140.001,45.000,31819.31967,1.91984,403.604,36.445,45.070,45.000,0.00,0.09,-272.78,-272.85,-11,526,-942,21.9,27.1,2.1,22.0,27.3,2.2,5.73,1.67,-0.9,27.5
2016-06-25 00:29:00,0.0,1.90228,0.00054,399.068,0.083,0.9172,0.0121,139.998,45.000,31818.54271,1.91995,403.602,36.456,45.070,45.000,0.00,0.09,-272.79,-272.84,-10,526,-942,21.8,27.1,2.0,22.0,27.4,2.3,5.73,1.87,-0.9,27.5
2016-06-25 00:30:00,0.0,1.90223,0.00051,399.057,0.057,0.9179,0.0073,139.996,45.000,31816.98368,1.91996,403.592,36.471,45.070,45.000,0.00,0.09,-272.77,-272.84,-12,526,-942,21.9,27.1,2.1,22.0,27.3,2.3,5.73,1.93,-0.9,27.5
2016-06-25 00:31:00,0.0,1.90264,0.00041,399.051,0.080,0.9157,0.0080,140.001,45.000,31818.08293,1.92025,403.578,36.482,45.070,45.000,0.00,0.09,-272.78,-272.84,-11,526,-942,21.9,27.2,2.1,22.0,27.2,2.2,5.73,1.65,-0.9,27.5
2016-06-25 00:32:00,0.0,1.90225,0.00043,398.987,0.078,0.9334,0.0116,140.000,45.001,31820.01896,1.92023,403.602,36.500,45.070,45.001,0.00,0.09,-272.79,-272.84,-10,526,-943,21.8,27.6,2.3,22.0,27.8,2.5,5.73,1.97,-0.9,27.6
2016-06-25 00:33:00,0.0,1.90267,0.00047,399.107,0.088,0.9178,0.0115,139.998,45.001,31821.33141,1.92038,403.643,36.512,45.070,45.001,0.00,0.09,-272.78,-272.84,-12,526,-943,21.9,27.1,2.1,22.0,27.5,2.4,5.73,1.79,-0.9,27.6
2016-06-25 00:34:00,0.0,1.90239,0.00036,398.995,0.091,0.9262,0.0080,139.998,45.001,31820.70150,1.92025,403.574,36.542,45.071,45.001,0.00,0.09,-272.78,-272.84,-11,526,-943,21.9,27.4,2.3,22.0,27.4,2.3,5.73,1.72,-0.9,27.5
2016-06-25 00:35:00,0.0,1.90258,0.00052,399.069,0.118,0.9253,0.0128,139.999,45.000,31819.94233,1.92042,403.642,36.539,45.070,45.000,0.00,0.09,-272.79,-272.85,-10,526,-942,21.9,27.3,2.2,22.0,27.7,2.5,5.73,1.99,-0.9,27.5
2016-06-25 00:36:00,0.0,1.90258,0.00036,399.002,0.106,0.9262,0.0126,139.998,45.000,31819.55762,1.92043,403.579,36.510,45.069,44.999,0.00,0.09,-272.78,-272.84,-11,526,-942,21.9,27.4,2.3,22.0,27.5,2.4,5.73,1.74,-0.9,27.5
2016-06-25 00:37:00,0.0,1.90203,0.00044,398.946,0.092,0.9407,0.0132,139.999,45.000,31821.43693,1.92021,403.598,36.501,45.069,44.999,0.00,0.09,-272.79,-272.83,-12,526,-942,21.9,27.8,2.5,22.0,27.9,2.6,5.73,1.74,-0.9,27.5
2016-06-25 00:38:00,0.0,1.90220,0.00045,398.928,0.064,0.9449,0.0072,140.000,45.000,31821.60348,1.92041,403.599,36.488,45.069,44.999,0.00,0.09,-272.79,-272.85,-11,526,-942,21.9,27.9,2.5,22.0,28.2,2.7,5.73,2.00,-0.9,27.5
2016-06-25 00:39:00,0.0,1.90246,0.00033,398.978,0.101,0.9315,0.0092,139.999,45.000,31821.19063,1.92043,403.585,36.487,45.068,44.999,0.00,0.09,-272.78,-272.85,-10,526,-942,21.9,27.6,2.4,22.0,27.8,2.5,5.73,1.71,-0.9,27.5
2016-06-25 00:40:00,0.0,1.90208,0.00045,398.801,0.193,0.9596,0.0227,139.998,44.999,31820.08069,1.92061,403.548,36.462,45.069,44.999,0.00,0.09,-272.78,-272.83,-12,526,-942,21.9,28.3,2.7,22.0,28.5,2.9,5.73,1.80,-0.8,27.5
2016-06-25 00:41:00,0.0,1.90223,0.00051,398.999,0.144,0.9352,0.0162,140.001,45.000,31822.04929,1.92027,403.622,36.468,45.069,45.000,0.00,0.09,-272.78,-272.84,-11,526,-942,21.9,27.6,2.4,22.0,28.1,2.7,5.73,1.97,-0.8,27.6
2016-06-25 00:42:00,0.0,1.90235,0.00042,399.018,0.041,0.9318,0.0040,140.001,45.000,31824.16284,1.92030,403.623,36.500,45.070,45.001,0.00,0.09,-272.78,-272.85,-10,526,-943,21.9,27.5,2.3,22.0,27.7,2.5,5.73,1.65,-0.8,27.6
2016-06-25 00:43:00,0.0,1.90259,0.00038,399.028,0.060,0.9296,0.0045,140.001,45.000,31824.45873,1.92051,403.627,36.531,45.071,45.001,0.00,0.09,-272.78,-272.84,-11,526,-943,21.9,27.5,2.3,22.0,27.7,2.5,5.73,1.93,-0.8,27.6
2016-06-25 00:44:00,0.0,1.90171,0.00047,398.787,0.053,0.9571,0.0071,139.997,45.000,31824.66925,1.92019,403.519,36.560,45.071,45.001,0.00,0.09,-272.77,-272.84,-11,526,-943,21.9,28.3,2.7,22.0,28.3,2.8,5.73,1.86,-0.8,27.5
2016-06-25 00:45:00,0.0,1.90176,0.00044,398.808,0.126,0.9547,0.0130,139.999,45.001,31825.79574,1.92018,403.531,36.559,45.071,45.001,0.00,0.09,-272.78,-272.85,-10,526,-943,21.9,28.2,2.7,22.0,28.6,3.0,5.73,1.67,-0.8,27.6
2016-06-25 00:46:00,0.0,1.90217,0.00043,398.949,0.125,0.9430,0.0142,140.000,45.000,31825.98156,1.92034,403.610,36.537,45.070,45.000,0.00,0.09,-272.79,-272.84,-11,526,-943,22.0,27.8,2.5,22.1,28.2,2.8,5.73,1.97,-0.8,27.6
2016-06-25 00:47:00,0.0,1.90267,0.00053,399.010,0.096,0.9268,0.0092,140.000,45.000,31824.19708,1.92056,403.592,36.509,45.069,44.999,0.00,0.09,-272.78,-272.85,-12,526,-942,22.0,27.3,2.3,22.0,27.6,2.4,5.73,1.82,-0.8,27.6
2016-06-25 00:48:00,0.0,1.90193,0.00046,398.857,0.081,0.9445,0.0103,139.999,45.000,31823.88716,1.92014,403.526,36.501,45.069,44.999,0.00,0.09,-272.79,-272.84,-11,526,-942,22.0,27.8,2.5,22.0,28.0,2.7,5.73,1.69,-0.8,27.6
2016-06-25 00:49:00,0.0,1.90228,0.00048,398.971,0.083,0.9286,0.0097,140.000,45.000,31825.21200,1.92019,403.562,36.500,45.069,44.999,0.00,0.09,-272.79,-272.84,-10,526,-943,22.0,27.3,2.2,22.0,27.8,2.6,5.73,1.99,-0.8,27.6
2016-06-25 00:50:00,0.0,1.90252,0.00046,399.082,0.047,0.9092,0.0080,139.999,45.000,31824.74596,1.92006,403.576,36.500,45.069,45.000,0.00,0.09,-272.78,-272.84,-12,526,-943,22.0,26.7,1.9,22.0,27.2,2.3,5.73,1.74,-0.8,27.6
2016-06-25 00:51:00,0.0,1.90246,0.00033,399.013,0.068,0.9203,0.0061,139.999,45.000,31824.04611,1.92019,403.561,36.502,45.070,45.001,0.00,0.09,-272.78,-272.83,-11,526,-943,21.9,27.0,2.1,22.1,27.2,2.3,5.73,1.77,-0.8,27.6
2016-06-25 00:52:00,0.0,1.90254,0.00042,398.962,0.094,0.9285,0.0114,140.001,45.000,31823.73078,1.92044,403.550,36.500,45.071,45.001,0.00,0.09,-272.78,-272.85,-10,526,-943,22.0,27.3,2.2,22.0,27.4,2.4,5.73,1.99,-0.8,27.6
2016-06-25 00:53:00,0.0,1.90215,0.00044,398.943,0.025,0.9316,0.0044,139.999,45.000,31824.78241,1.92012,403.549,36.499,45.070,45.001,0.00,0.09,-272.77,-272.84,-11,526,-943,22.0,27.4,2.3,22.0,27.7,2.5,5.73,1.68,-0.8,27.6
2016-06-25 00:54:00,0.0,1.90192,0.00047,398.954,0.039,0.9295,0.0036,139.998,45.000,31824.69362,1.91985,403.549,36.497,45.070,45.000,0.00,0.09,-272.78,-272.83,-12,526,-942,22.0,27.3,2.3,22.0,27.6,2.5,5.73,1.81,-0.8,27.6
2016-06-25 00:55:00,0.0,1.90255,0.00053,399.025,0.046,0.9202,0.0054,139.999,45.000,31822.92358,1.92029,403.573,36.456,45.069,44.999,0.00,0.09,-272.78,-272.85,-10,526,-942,22.0,27.0,2.1,22.0,27.4,2.4,5.73,1.97,-0.8,27.6
2016-06-25 00:56:00,0.0,1.90219,0.00049,398.938,0.049,0.9285,0.0045,140.001,45.000,31822.12867,1.92003,403.527,36.437,45.069,44.999,0.00,0.09,-272.77,-272.85,-10,526,-942,22.0,27.2,2.3,22.0,27.5,2.4,5.73,1.68,-0.8,27.6
2016-06-25 00:57:00,0.0,1.90236,0.00035,399.041,0.054,0.9162,0.0031,139.999,45.000,31822.00641,1.92007,403.569,36.387,45.069,44.999,0.00,0.09,-272.77,-272.83,-12,526,-942,22.0,26.8,2.1,22.0,27.3,2.3,5.73,1.83,-0.8,27.6
2016-06-25 00:58:00,0.0,1.90206,0.00047,398.925,0.116,0.9227,0.0120,139.999,44.999,31821.24970,1.91985,403.485,36.375,45.069,44.999,0.00,0.09,-272.78,-272.84,-11,526,-942,22.0,27.1,2.2,22.1,27.2,2.3,5.73,1.97,-0.8,27.6
2016-06-25 00:59:00,0.0,1.90164,0.00045,398.898,0.076,0.9253,0.0116,139.999,44.999,31819.99162,1.91949,403.472,36.351,45.069,44.999,0.00,0.09,-272.78,-272.85,-10,526,-942,22.0,27.1,2.2,22.1,27.5,2.5,5.73,1.67,-0.8,27.6
2016-06-25 01:00:00,0.0,1.90176,0.00050,398.899,0.082,0.9202,0.0085,139.998,44.999,31818.40982,1.91951,403.444,36.322,45.069,45.000,0.00,0.09,-272.78,-272.84,-11,526,-942,22.0,26.9,2.1,22.0,27.3,2.3,5.73,1.84,-0.8,27.6
2016-06-25 01:01:00,0.0,1.90222,0.00040,399.038,0.060,0.9011,0.0115,140.000,44.999,31818.40082,1.91954,403.492,36.317,45.069,45.000,0.00,0.09,-272.78,-272.84,-12,526,-942,22.0,26.3,1.8,22.0,26.9,2.1,5.73,1.96,-0.8,27.6
2016-06-25 01:02:00,0.0,1.90186,0.00054,398.948,0.071,0.9046,0.0055,139.997,45.000,31819.39102,1.91932,403.415,36.313,45.069,45.000,0.00,0.09,-272.78,-272.84,-11,526,-942,22.0,26.4,1.8,22.0,26.6,2.0,5.73,1.67,-0.8,27.6
2016-06-25 01:03:00,0.0,1.90181,0.00037,398.862,0.100,0.9053,0.0066,140.000,45.000,31819.61570,1.91924,403.335,36.314,45.070,45.000,0.00,0.09,-272.79,-272.84,-10,526,-942,22.1,26.4,1.9,22.1,26.8,2.1,5.73,1.86,-0.7,27.6
2016-06-25 01:04:00,0.0,1.90218,0.00042,399.051,0.061,0.8823,0.0078,139.998,45.000,31820.54375,1.91914,403.404,36.317,45.070,45.000,0.00,0.09,-272.78,-272.83,-12,526,-942,22.1,25.7,1.5,22.1,26.3,1.8,5.73,1.94,-0.7,27.6
2016-06-25 01:05:00,0.0,1.90223,0.00048,399.026,0.070,0.8829,0.0093,140.001,45.000,31820.68493,1.91926,403.386,36.313,45.069,45.000,0.00,0.09,-272.78,-272.85,-12,526,-942,22.0,25.7,1.5,22.0,26.0,1.7,5.73,1.66,-0.7,27.6
2016-06-25 01:06:00,0.0,1.90176,0.00054,399.009,0.068,0.8867,0.0071,139.997,45.000,31819.63454,1.91884,403.385,36.312,45.069,45.000,0.00,0.09,-272.79,-272.84,-10,526,-942,22.1,25.8,1.6,22.1,26.2,1.7,5.73,1.87,-0.8,27.6
2016-06-25 01:07:00,0.0,1.90152,0.00036,398.949,0.040,0.8911,0.0049,139.998,45.000,31820.75199,1.91866,403.347,36.300,45.069,44.999,0.00,0.09,-272.78,-272.84,-11,526,-942,22.1,25.9,1.6,22.1,26.3,1.8,5.73,1.94,-0.7,27.6
2016-06-25 01:08:00,0.0,1.90232,0.00042,399.150,0.046,0.8674,0.0086,140.000,45.000,31821.39070,1.91898,403.431,36.274,45.069,45.000,0.00,0.09,-272.77,-272.84,-12,526,-942,22.1,25.2,1.2,22.1,25.8,1.6,5.73,1.66,-0.7,27.6
2016-06-25 01:09:00,0.0,1.90194,0.00041,399.074,0.067,0.8739,0.0075,140.001,45.000,31822.17929,1.91880,403.388,36.300,45.070,45.000,0.00,0.09,-272.79,-272.84,-11,526,-942,22.0,25.4,1.3,22.1,25.7,1.5,5.73,1.91,-0.7,27.6
2016-06-25 01:10:00,0.0,1.90199,0.00035,399.069,0.051,0.8764,0.0057,139.999,45.000,31824.24028,1.91885,403.394,36.313,45.070,45.001,0.00,0.09,-272.78,-272.84,-10,526,-942,22.1,25.5,1.4,22.1,25.8,1.6,5.73,1.91,-0.7,27.6
2016-06-25 01:11:00,0.0,1.90236,0.00049,399.022,0.085,0.8807,0.0093,139.998,45.000,31822.42822,1.91930,403.368,36.312,45.070,45.001,0.00,0.09,-272.78,-272.84,-12,526,-942,22.0,25.6,1.4,22.1,26.0,1.7,5.73,1.65,-0.7,27.5
2016-06-25 01:12:00,0.0,1.90217,0.00058,398.929,0.096,0.8890,0.0102,139.999,45.000,31823.09866,1.91929,403.318,36.310,45.070,45.000,0.00,0.09,-272.79,-272.84,-12,527,-942,22.1,25.9,1.6,22.1,26.0,1.7,5.73,1.92,-0.7,27.6
2016-06-25 01:13:00,0.0,1.90190,0.00035,398.864,0.062,0.9015,0.0064,140.001,45.000,31824.09938,1.91928,403.315,36.286,45.070,45.000,0.00,0.09,-272.78,-272.85,-11,527,-942,22.1,26.2,1.8,22.1,26.5,2.0,5.73,1.90,-0.7,27.6
2016-06-25 01:14:00,0.0,1.90220,0.00040,398.926,0.066,0.8917,0.0091,139.999,45.000,31822.13902,1.91934,403.327,36.266,45.070,45.000,0.00,0.09,-272.77,-272.83,-11,526,-942,22.1,25.9,1.6,22.1,26.4,1.9,5.73,1.65,-0.7,27.6
2016-06-25 01:15:00,0.0,1.90248,0.00046,398.998,0.048,0.8842,0.0060,140.000,45.000,31821.98706,1.91952,403.364,36.251,45.069,45.000,0.00,0.09,-272.79,-272.84,-12,526,-942,22.1,25.7,1.5,22.1,26.1,1.7,5.73,1.91,-0.7,27.6
2016-06-25 01:16:00,0.0,1.90156,0.00047,398.737,0.096,0.9072,0.0127,139.998,45.000,31821.64670,1.91905,403.214,36.250,45.069,44.999,0.00,0.09,-272.79,-272.85,-12,526,-942,22.1,26.4,1.9,22.1,26.5,2.0,5.73,1.91,-0.7,27.6
2016-06-25 01:17:00,0.0,1.90180,0.00042,398.822,0.105,0.9035,0.0114,140.000,45.000,31820.44818,1.91918,403.283,36.250,45.069,44.999,0.00,0.09,-272.77,-272.84,-10,526,-942,22.1,26.2,1.8,22.1,26.8,2.1,5.73,1.66,-0.7,27.6
2016-06-25 01:18:00,0.0,1.90094,0.00071,398.870,0.098,0.9002,0.0121,140.001,45.000,31822.17359,1.91833,403.314,36.250,45.069,45.000,0.00,0.09,-272.79,-272.83,-11,526,-942,22.1,26.1,1.8,22.1,26.6,2.0,5.73,1.90,-0.7,27.6
2016-06-25 01:19:00,0.0,1.90038,0.00040,399.029,0.075,0.8883,0.0080,139.998,45.000,31820.92739,1.91748,403.412,36.250,45.069,45.000,0.00,0.09,-272.79,-272.85,-12,526,-942,22.1,25.8,1.6,22.1,26.3,1.8,5.73,1.91,-0.7,27.6
2016-06-25 01:20:00,0.0,1.89987,0.00059,399.114,0.112,0.8827,0.0115,139.997,45.000,31822.55741,1.91690,403.473,36.264,45.070,45.001,0.00,0.09,-272.78,-272.84,-11,526,-942,22.1,25.6,1.5,22.1,26.1,1.8,5.73,1.65,-0.7,27.6
2016-06-25 01:21:00,0.0,1.89899,0.00047,399.030,0.094,0.8910,0.0090,139.998,45.000,31824.21907,1.91610,403.428,36.291,45.071,45.001,0.00,0.09,-272.78,-272.83,-11,526,-943,22.1,25.8,1.6,22.1,26.1,1.8,5.73,1.94,-0.7,27.6
2016-06-25 01:22:00,0.0,1.89951,0.00035,399.129,0.051,0.8787,0.0057,139.999,45.001,31821.93172,1.91637,403.466,36.310,45.071,45.001,0.00,0.09,-272.78,-272.84,-12,526,-942,22.1,25.4,1.4,22.1,25.9,1.7,5.73,1.87,-0.7,27.6
2016-06-25 01:23:00,0.0,1.90033,0.00043,399.274,0.048,0.8622,0.0062,139.999,45.000,31823.49741,1.91689,403.530,36.312,45.070,45.000,0.00,0.09,-272.78,-272.84,-12,526,-943,22.1,24.9,1.1,22.1,25.5,1.4,5.73,1.66,-0.7,27.6
2016-06-25 01:24:00,0.0,1.90036,0.00058,399.193,0.053,0.8653,0.0070,139.999,45.000,31825.53778,1.91700,403.464,36.313,45.070,45.000,0.00,0.09,-272.78,-272.83,-10,526,-942,22.1,25.0,1.2,22.1,25.4,1.4,5.73,1.95,-0.7,27.6
2016-06-25 01:25:00,0.0,1.90008,0.00061,399.113,0.064,0.8709,0.0072,140.000,45.000,31826.78480,1.91686,403.409,36.297,45.069,45.000,0.00,0.09,-272.78,-272.85,-11,526,-942,22.2,25.2,1.3,22.1,25.5,1.5,5.73,1.85,-0.7,27.6
2016-06-25 01:26:00,0.0,1.89989,0.00049,399.100,0.064,0.8772,0.0075,140.000,45.000,31827.26177,1.91672,403.430,36.276,45.069,44.999,0.00,0.09,-272.78,-272.84,-12,526,-942,22.2,25.3,1.4,22.1,25.7,1.6,5.73,1.66,-0.7,27.6
2016-06-25 01:27:00,0.0,1.90007,0.00059,399.140,0.031,0.8747,0.0036,139.999,45.000,31825.17851,1.91685,403.458,36.252,45.069,44.999,0.00,0.09,-272.79,-272.84,-11,527,-942,22.2,25.3,1.4,22.2,25.7,1.6,5.73,1.95,-0.7,27.6
2016-06-25 01:28:00,0.0,1.90060,0.00039,399.158,0.053,0.8715,0.0044,139.999,45.000,31823.81640,1.91737,403.460,36.250,45.069,44.999,0.00,0.09,-272.78,-272.84,-10,527,-942,22.2,25.2,1.3,22.1,25.6,1.5,5.73,1.87,-0.7,27.6
2016-06-25 01:29:00,0.0,1.89965,0.00058,399.063,0.079,0.8847,0.0074,139.999,45.000,31822.67957,1.91672,403.431,36.250,45.069,44.999,0.00,0.09,-272.79,-272.85,-12,527,-942,22.2,25.6,1.5,22.2,25.8,1.6,5.73,1.66,-0.7,27.6
2016-06-25 01:30:00,0.0,1.89916,0.00048,398.908,0.079,0.9003,0.0056,139.998,45.000,31826.27581,1.91644,403.352,36.250,45.069,44.999,0.00,0.09,-272.78,-272.84,-12,527,-942,22.2,26.0,1.8,22.2,26.4,1.9,5.73,1.93,-0.7,27.6
2016-06-25 01:31:00,0.0,1.89942,0.00047,398.955,0.047,0.9008,0.0051,139.998,45.000,31823.52611,1.91673,403.401,36.248,45.069,45.000,0.00,0.09,-272.78,-272.83,-11,527,-942,22.2,26.0,1.8,22.2,26.4,2.0,5.73,1.89,-0.6,27.6
2016-06-25 01:32:00,0.0,1.89957,0.00041,399.077,0.045,0.8879,0.0038,139.997,45.000,31824.68430,1.91667,403.463,36.250,45.069,45.000,0.00,0.09,-272.79,-272.84,-11,527,-942,22.2,25.7,1.6,22.2,26.2,1.9,5.73,1.66,-0.7,27.6
2016-06-25 01:33:00,0.0,1.89920,0.00054,399.053,0.065,0.8895,0.0072,139.996,45.000,31824.72415,1.91631,403.444,36.252,45.070,45.000,0.00,0.09,-272.79,-272.84,-12,527,-942,22.2,25.7,1.6,22.2,26.1,1.8,5.73,1.92,-0.6,27.6
2016-06-25 01:34:00,0.0,1.89946,0.00038,399.115,0.053,0.8829,0.0050,140.000,45.000,31824.23078,1.91641,403.474,36.251,45.070,45.000,0.00,0.09,-272.77,-272.83,-12,527,-942,22.2,25.4,1.5,22.2,26.0,1.7,5.73,1.90,-0.6,27.6
2016-06-25 01:35:00,0.0,1.89899,0.00058,399.080,0.092,0.8850,0.0077,140.000,45.000,31825.09980,1.91604,403.448,36.250,45.070,45.000,0.00,0.09,-272.78,-272.84,-11,527,-942,22.2,25.6,1.6,22.2,25.9,1.7,5.73,1.66,-0.6,27.6
2016-06-25 01:36:00,0.0,1.89896,0.00062,399.080,0.066,0.8905,0.0079,140.003,45.000,31824.90966,1.91606,403.477,36.248,45.069,45.000,0.00,0.09,-272.79,-272.84,-11,526,-942,22.2,25.6,1.6,22.2,26.1,1.9,5.73,1.89,-0.6,27.6
2016-06-25 01:37:00,0.0,1.89881,0.00069,399.017,0.094,0.8921,0.0082,140.000,45.000,31823.33771,1.91601,403.422,36.246,45.069,45.000,0.00,0.09,-272.78,-272.84,-12,527,-942,22.2,25.7,1.6,22.2,26.0,1.8,5.73,1.93,-0.6,27.6
2016-06-25 01:38:00,0.0,1.89770,0.00050,398.946,0.095,0.8980,0.0081,139.998,45.000,31820.99097,1.91496,403.380,36.244,45.069,45.000,0.00,0.09,-272.77,-272.84,-12,527,-942,22.3,25.9,1.8,22.2,26.3,1.9,5.73,1.66,-0.6,27.7
2016-06-25 01:39:00,0.0,1.89730,0.00038,398.953,0.050,0.8955,0.0056,140.000,45.000,31822.99013,1.91450,403.373,36.244,45.069,45.000,0.00,0.09,-272.79,-272.85,-11,527,-942,22.2,25.8,1.7,22.2,26.3,1.9,5.73,1.86,-0.6,27.6
2016-06-25 01:40:00,0.0,1.89814,0.00048,399.099,0.036,0.8812,0.0044,139.999,45.000,31823.26336,1.91507,403.449,36.240,45.069,45.000,0.00,0.09,-272.78,-272.84,-12,527,-942,22.2,25.3,1.4,22.2,26.0,1.8,5.73,1.94,-0.6,27.6
2016-06-25 01:41:00,0.0,1.89819,0.00056,399.103,0.073,0.8805,0.0069,139.996,45.000,31821.99173,1.91510,403.448,36.246,45.070,45.000,0.00,0.09,-272.77,-272.84,-12,527,-942,22.2,25.3,1.4,22.2,25.7,1.7,5.73,1.66,-0.6,27.7
2016-06-25 01:42:00,0.0,1.89839,0.00076,399.011,0.058,0.8912,0.0072,140.000,45.000,31823.81440,1.91548,403.413,36.244,45.070,45.000,0.00,0.09,-272.79,-272.84,-11,527,-942,22.2,25.6,1.6,22.2,26.0,1.8,5.73,1.88,-0.6,27.6
2016-06-25 01:43:00,0.0,1.89881,0.00048,399.035,0.057,0.8908,0.0051,139.997,45.000,31823.89900,1.91594,403.432,36.221,45.070,45.000,0.00,0.09,-272.78,-272.85,-11,527,-942,22.2,25.6,1.6,22.2,26.0,1.8,5.73,1.93,-0.6,27.7
2016-06-25 01:44:00,0.0,1.89875,0.00062,399.029,0.085,0.8940,0.0062,139.998,45.000,31824.39684,1.91596,403.444,36.243,45.070,45.000,0.00,0.09,-272.77,-272.84,-12,527,-942,22.3,25.7,1.7,22.2,26.2,1.9,5.73,1.65,-0.6,27.7
2016-06-25 01:45:00,0.0,1.89818,0.00034,398.854,0.088,0.9066,0.0094,139.999,45.000,31824.24691,1.91560,403.330,36.236,45.070,45.000,0.00,0.09,-272.79,-272.83,-12,527,-942,22.2,26.1,1.9,22.2,26.3,2.0,5.73,1.88,-0.6,27.7
2016-06-25 01:46:00,0.0,1.89865,0.00060,398.987,0.120,0.8947,0.0143,139.998,45.000,31823.11264,1.91586,403.404,36.197,45.070,45.000,0.00,0.09,-272.79,-272.85,-11,527,-942,22.2,25.7,1.6,22.2,26.3,2.0,5.73,1.93,-0.6,27.7